Flight Track Log - Related Links

Times and Time Zones

All times are in EDT time to prevent confusion due to time zone crossing. See the N561EJ flight status page for this flight to view local times or setup timezone preferences in your user account.


Time Position Orientation Groundspeed Altitude Reporting Facility
EDT Latitude Longitude Course Direction KTS MPH feet Rate Location/Type
Thu 02:24:15 PM 26.6853 -80.0164 322° Northwest 224 258 4,100  Level Miami Center
Thu 02:25:15 PM 26.7289 -80.0339 340° North 239 275 6,900 2,850 Climbing Miami Center
Thu 02:26:15 PM 26.7481 -80.1111 286° West 239 275 9,800 1,500 Climbing Miami Center
Thu 02:27:15 PM 26.7669 -80.2000 283° West 281 323 9,900 750 Climbing Miami Center
Thu 02:28:15 PM 26.7856 -80.2914 283° West 308 354 11,300 1,700 Climbing Miami Center
Thu 02:29:00 PM 27.0775 -80.4032 322° Northwest  Level FlightAware Approximate
Thu 02:29:15 PM 26.8089 -80.3642 290° West 288 331 13,300  Level Miami Center
Thu 02:30:15 PM 26.8342 -80.4511 288° West 277 319 15,700 2,250 Climbing Miami Center
Thu 02:31:15 PM 26.8592 -80.5356 288° West 277 319 17,800 1,650 Climbing Miami Center
Thu 02:32:15 PM 26.8756 -80.6247 282° West 287 330 19,000 600 Climbing Miami Center
Thu 02:33:15 PM 26.9044 -80.7233 288° West 309 356 19,000 950 Level Miami Center
Thu 02:34:15 PM 26.9825 -80.7656 334° Northwest 295 339 20,900 2,000 Climbing Miami Center
Thu 02:35:15 PM 27.0611 -80.7914 344° North 282 325 23,000 1,050 Climbing Miami Center
Thu 02:36:15 PM 27.1500 -80.8225 343° North 297 342 23,000  Level Miami Center
Thu 02:37:15 PM 27.2494 -80.8586 342° North 338 389 23,000 900 Level Miami Center
Thu 02:38:15 PM 27.3486 -80.8947 342° North 363 418 24,800 2,150 Climbing Miami Center
Thu 02:39:15 PM 27.4375 -80.9236 344° North 358 412 27,300 2,500 Climbing Miami Center
Thu 02:40:15 PM 27.5139 -80.9544 340° North 336 387 29,800 2,450 Climbing Miami Center
Thu 02:41:15 PM 27.5861 -80.9806 342° North 291 335 32,200 2,100 Climbing Miami Center
Thu 02:42:15 PM 27.6503 -81.0017 344° North 265 305 34,000 900 Climbing Miami Center
Thu 02:43:15 PM 27.7139 -81.0436 330° Northwest 253 291 34,000 1,050 Level Miami Center
Thu 02:44:15 PM 27.7661 -81.1042 314° West 253 291 36,100 2,050 Climbing Miami Center
Thu 02:45:15 PM 27.8106 -81.1553 315° West 248 285 38,100 1,500 Climbing Miami Center
Thu 02:46:15 PM 27.8553 -81.1992 319° Northwest 223 257 39,100 750 Climbing Miami Center
Thu 02:47:15 PM 27.8994 -81.2525 313° West 218 251 39,600 450 Climbing Miami Center
Thu 02:48:15 PM 27.9419 -81.2989 316° Northwest 227 261 40,000 200 Climbing Miami Center
Thu 02:49:15 PM 28.0025 -81.3669 315° West 249 287 40,000  Level Miami Center
Thu 02:50:15 PM 28.0506 -81.4278 312° West 279 321 40,000  Level Miami Center
Thu 02:51:52 PM 28.1533 -81.5367 317° Northwest 288 331 40,000  Level Jacksonville Center
Thu 02:52:52 PM 28.2167 -81.6089 315° West 301 346 40,000  Level Jacksonville Center
Thu 02:53:52 PM 28.2800 -81.6833 314° West 317 365 40,000  Level Jacksonville Center
Thu 02:54:52 PM 28.3431 -81.7533 316° Northwest 317 365 40,000  Level Jacksonville Center
Thu 02:55:52 PM 28.4083 -81.8281 315° West 317 365 40,000  Level Jacksonville Center
Thu 02:56:52 PM 28.4653 -81.8983 313° West 322 371 40,000  Level Jacksonville Center
Thu 02:57:52 PM 28.5264 -81.9711 314° West 322 371 40,000  Level Jacksonville Center
Thu 02:58:52 PM 28.6022 -82.0508 317° Northwest 322 371 40,000  Level Jacksonville Center
Thu 02:59:52 PM 28.6653 -82.1236 315° West 322 371 40,000  Level Jacksonville Center
Thu 03:00:52 PM 28.7283 -82.1989 314° West 322 371 40,000  Level Jacksonville Center
Thu 03:01:52 PM 28.7933 -82.2719 315° West 322 371 40,000  Level Jacksonville Center
Thu 03:02:52 PM 28.8542 -82.3450 314° West 322 371 40,000  Level Jacksonville Center
Thu 03:03:52 PM 28.9086 -82.4086 314° West 314 361 40,000  Level Jacksonville Center
Thu 03:04:52 PM 28.9717 -82.4844 314° West 319 367 40,000  Level Jacksonville Center
Thu 03:05:52 PM 29.0344 -82.5578 314° West 319 367 40,000  Level Jacksonville Center
Thu 03:06:52 PM 29.0992 -82.6311 315° West 319 367 40,000  Level Jacksonville Center
Thu 03:07:52 PM 29.1619 -82.7047 314° West 319 367 40,000  Level Jacksonville Center
Thu 03:08:52 PM 29.2247 -82.7783 314° West 319 367 40,000  Level Jacksonville Center
Thu 03:09:52 PM 29.2875 -82.8544 313° West 319 367 40,000  Level Jacksonville Center
Thu 03:10:52 PM 29.3500 -82.9258 315° West 319 367 40,000  Level Jacksonville Center
Thu 03:11:52 PM 29.4147 -82.9997 315° West 319 367 40,000  Level Jacksonville Center
Thu 03:12:52 PM 29.4731 -83.0761 311° West 319 367 40,000  Level Jacksonville Center
Thu 03:13:52 PM 29.5500 -83.1600 317° Northwest 331 381 40,000  Level Jacksonville Center
Thu 03:14:52 PM 29.6106 -83.2319 314° West 326 375 40,000  Level Jacksonville Center
Thu 03:16:52 PM 29.7331 -83.3828 313° West 321 369 40,000  Level Jacksonville Center
Thu 03:17:52 PM 29.7956 -83.4575 314° West 321 369 40,000  Level Jacksonville Center
Thu 03:18:52 PM 29.8600 -83.5319 315° West 321 369 40,000  Level Jacksonville Center
Thu 03:19:52 PM 29.9200 -83.6042 314° West 321 369 40,000  Level Jacksonville Center
Thu 03:20:52 PM 29.9844 -83.6814 314° West 321 369 40,000  Level Jacksonville Center
Thu 03:21:52 PM 30.0464 -83.7564 314° West 321 369 40,000  Level Jacksonville Center
Thu 03:22:52 PM 30.1086 -83.8314 314° West 316 364 40,000  Level Jacksonville Center
Thu 03:23:52 PM 30.1728 -83.9064 315° West 316 364 40,000  Level Jacksonville Center
Thu 03:24:52 PM 30.2347 -83.9817 314° West 316 364 40,000  Level Jacksonville Center
Thu 03:25:52 PM 30.2967 -84.0569 314° West 316 364 40,000  Level Jacksonville Center
Thu 03:26:52 PM 30.3586 -84.1322 314° West 316 364 40,000  Level Jacksonville Center
Thu 03:27:52 PM 30.4206 -84.2078 314° West 316 364 40,000  Level Jacksonville Center
Thu 03:28:52 PM 30.4844 -84.2858 314° West 316 364 40,000  Level Jacksonville Center
Thu 03:29:52 PM 30.5400 -84.3614 310° West 316 364 40,000  Level Jacksonville Center
Thu 03:30:52 PM 30.5639 -84.4511 287° West 316 364 40,000 -50 Level Jacksonville Center
Thu 03:31:52 PM 30.5689 -84.5622 273° West 316 364 39,900 -550 Descending Jacksonville Center
Thu 03:32:52 PM 30.5736 -84.6708 273° West 321 369 38,900 -950 Descending Jacksonville Center
Thu 03:33:52 PM 30.5783 -84.7819 273° West 341 392 38,000 -850 Descending Jacksonville Center
Thu 03:34:52 PM 30.5869 -84.8931 275° West 348 400 37,200 -7,000 Descending Jacksonville Center
Thu 03:35:52 PM 30.5914 -85.0042 273° West 348 400 24,000 -2,400 Descending Jacksonville Center
Thu 03:36:52 PM 30.5981 -85.1128 274° West 348 400 32,400 2,900 Climbing Jacksonville Center
Thu 03:37:52 PM 30.6044 -85.2217 274° West 348 400 29,800 -2,200 Descending Jacksonville Center
Thu 03:38:52 PM 30.6211 -85.3233 281° West 356 410 28,000 -1,350 Descending Jacksonville Center
Thu 03:39:52 PM 30.6400 -85.4300 282° West 351 404 27,100 -1,000 Descending Jacksonville Center
Thu 03:40:52 PM 30.6567 -85.5392 280° West 351 404 26,000 -1,050 Descending Jacksonville Center
Thu 03:41:52 PM 30.6731 -85.6508 280° West 351 404 25,000 -1,000 Descending Jacksonville Center
Thu 03:42:52 PM 30.6914 -85.7600 281° West 351 404 24,000 -500 Descending Jacksonville Center
Thu 03:43:52 PM 30.7058 -85.8667 279° West 351 404 24,000  Level Jacksonville Center
Thu 03:44:52 PM 30.7239 -85.9761 281° West 346 398 24,000  Level Jacksonville Center
Thu 03:45:52 PM 30.7381 -86.0803 279° West 346 398 24,000  Level Jacksonville Center
Thu 03:46:52 PM 30.7542 -86.1872 280° West 341 392 24,000  Level Jacksonville Center
Thu 03:48:00 PM 30.7678 -86.3042 278° West  Level FlightAware Approximate
Thu 03:51:34 PM 30.8267 -86.6972 267° West 334 384 24,000  Level Houston Center
Thu 03:52:36 PM 30.8200 -86.8050 266° West 333 383 24,000  Level Houston Center
Thu 03:53:38 PM 30.8139 -86.9125 266° West 338 389 24,000  Level Houston Center
Thu 03:54:40 PM 30.8078 -87.0219 266° West 336 387 24,000  Level Houston Center
Thu 03:55:00 PM 30.7955 -87.0266 267° West  Level FlightAware Approximate
Thu 03:55:43 PM 30.8033 -87.1286 267° West 336 387 24,000  Level Houston Center
Thu 03:56:00 PM 30.7912 -87.1307 267° West  Level FlightAware Approximate
Thu 03:56:45 PM 30.7956 -87.2589 266° West 336 387 24,000  Level Houston Center
Thu 03:57:00 PM 30.7868 -87.2347 267° West  Level FlightAware Approximate
Thu 03:57:47 PM 30.7914 -87.3678 267° West 337 388 23,300  Level Houston Center
Thu 03:58:49 PM 30.7844 -87.4786 266° West 342 394 20,800 -2,613 Descending Houston Center
Thu 03:59:51 PM 30.7808 -87.5758 268° West 308 354 17,900 -2,613 Descending Houston Center
Thu 04:00:53 PM 30.7853 -87.6775 273° West 312 359 15,400 -2,371 Descending Houston Center
Thu 04:01:55 PM 30.7644 -87.7711 256° West 301 346 13,000 -2,806 Descending Houston Center
Thu 04:02:57 PM 30.7283 -87.8692 247° West 271 312 9,600 -2,688 Descending Houston Center
Thu 04:04:00 PM 30.7011 -87.9497 249° West 266 306 7,400 -2,160 Descending Houston Center
Thu 04:05:02 PM 30.6722 -88.0272 247° West 261 300 5,100 -2,081 Descending Houston Center
Thu 04:06:04 PM 30.6428 -88.1061 247° West 261 300 3,100 -1,016 Descending Houston Center
Thu 04:07:06 PM 30.6306 -88.1694 257° West 232 267 3,000 -677 Descending Houston Center
Thu 04:08:08 PM 30.6436 -88.2056 293° West 161 185 1,700 -1,258 Descending Houston Center
Thu 04:09:10 PM 30.6747 -88.2300 326° Northwest 125 144 400 -1,258 Descending Houston Center

Login

Don't have an account? Register now (free) for customized features, flight alerts, and more!